Regional Weather Roundup
Issued by NWS Green Bay, WI

Home | Current Version | Previous Version | Text Only | Print | Product List | Glossary On
Versions: 1 2 3 4 5 6 7 8 9 10 11 12 13 14 15 16 17 18 19 20 21 22 23 24 25 26 27 28 29 30 31 32 33 34 35 36 37 38 39 40 41 42 43 44 45 46 47 48 49 50
000
ASUS43 KGRB 262300
RWRGRB

NORTH-CENTRAL AND NORTHEAST WISCONSIN REGIONAL WEATHER ROUNDUP
NATIONAL WEATHER SERVICE GREEN BAY WI
500 PM CST SUN FEB 26 2017

WIZ005-009-010>012-018-019-270000-
NORTH CENTRAL WISCONSIN

CITY           SKY/WX    TMP DP  RH WIND       PRES   REMARKS
IRONWOOD       CLEAR     23   9  55 NW14      29.80R
MANITOWISH WTR NOT AVBL
ARBOR VITAE    NOT AVBL
EAGLE RIVER    NOT AVBL
LAND O LAKES   NOT AVBL
RHINELANDER    FLURRIES  30  23  75 W13       29.75R
PHILLIPS       NOT AVBL
ANTIGO         NOT AVBL
TOMAHAWK       NOT AVBL
MERRILL        NOT AVBL
$$

WIZ013-073-270000-
NORTHEAST WISCONSIN

CITY           SKY/WX    TMP DP  RH WIND       PRES   REMARKS
IRON MOUNTAIN  LGT SNOW  30  21  69 W17G28    29.73R VSB 3/4
MARINETTE      CLOUDY    38  21  50 W10       29.78R
$$

WIZ017-030-035>037-045-270000-
CENTRAL WISCONSIN

CITY           SKY/WX    TMP DP  RH WIND       PRES   REMARKS
MEDFORD        NOT AVBL
WAUSAU         CLEAR     33  20  58 W13G21    29.78R
MOSINEE        NOT AVBL
MARSHFIELD     CLEAR     32  18  56 W9        29.80R
WISC RAPIDS    PTCLDY    37  21  52 W14G22    29.83R
STEVENS POINT  NOT AVBL
WAUPACA        NOT AVBL
SHAWANO        MOCLDY    39  19  44 W13G18    29.79R
CLINTONVILLE   NOT AVBL
WAUTOMA        CLOUDY    38  24  57 SW17G24   29.84R
$$

WIZ038-039-048-051-270000-
FOX VALLEY

CITY           SKY/WX    TMP DP  RH WIND       PRES   REMARKS
NWS GREEN BAY  CLOUDY    39  23  52 W13       29.81R
APPLETON       MOCLDY    37  19  48 SW13G18   29.79R
OSHKOSH        CLEAR     38  23  55 SW9       29.83R
FOND DU LAC    CLEAR     38  26  62 SW10      29.85R
$$

WIZ022-050-052-270000-
EAST CENTRAL WISCONSIN

CITY           SKY/WX    TMP DP  RH WIND       PRES   REMARKS
EPHRAIM        NOT AVBL
WASHINGTON ISL NOT AVBL
STURGEON BAY   PTCLDY    37  22  54 W12G21    29.80R
MANITOWOC      NOT AVBL
SHEBOYGAN      CLEAR     38  25  59 SW15      29.85R
$$

LMZ563-521-522-541>543-270000-
LAKESHORE

STATION/POSITION TIME  TEMP    WIND        PRES    VSBY  WAVE
                       AIR SEA DIR/SP/G                  HT/PER
                 (UTC) (F)     (DEG/KT/KT) (MB)    (MI)  (FT/S)
SHEBOYGAN LKSHOR 2200   40     240/ 16/ 19 1010.9R
KEWAUNEE LKSHORE 2230   38     220/  9/ 15 1008.8R
NORTHPORT PIER   2240   35     220/  6/ 12 1007.8R
SISTER BAY LKSHO 2205   37     260/ 17/ 20   N/A
CHAMBERS ISLAND  2240   36     210/  7/ 17 1007.8R
MENOMINEE LKSHOR 2230   38     240/ 14/ 22 1007.4R
$$



USA.gov is the U.S. government's official web portal to all federal, state and local government web resources and services.